www.pogodaiklimat.ru

Погода и климат >> Архив погоды >> Греция >> Митилини


ПОГОДА в Митилини

  • Прогноз погоды в Митилини
  • Монитор погоды в Митилини

АРХИВ ПОГОДЫ в Митилини

Время (UTC), дата Ветер
(напр.,м/с)
 
Видим.   Явления Облачность Т
(С)
Тd
(С)
f
(%)
Тe
(С)
Тes
(С)
Комфортность P
(гПа)
Po
(гПа)
Тmin
(С)
Tmax
(С)
R
(мм)
R24
(мм)
S
(см)
09 11.02 ЮВ 7
{10}
10 км 5/5 600 м
[Sc diur, vesp]
+12.2 +7.3 72 +9 +11 1018.2 1017.6
12 11.02 ЮВ 8
{11}
10 км 8/8 600 м
[Sc]
+14.0 +7.1 63 +12 +12 1016.7 1016.2
15 11.02 Ю 6
{13}
10 км 8/8 600 м
[Sc]
+14.4 +7.1 62 +13 +13 1015.4 1014.9
18 11.02 Ю 5
{11}
10 км 9/9 600 м
[Cu Sc]
+14.2 +7.3 63 +13 +13 1013.8 1013.3 +14.4
06 12.02 Ю 9
{17}
12 км 9/6 540 м
[Cu Sc Ac As]
+15.6 +7.7 59 +14 +14 1011.6 1011.1 +13.6 190
09 12.02 Ю 10
{17}
12 км 9/6 540 м
[Cu Sc Ac As]
+15.6 +7.7 59 +14 +14 1012.6 1012.0
12 12.02 ЮЗ 8
{21}
8000 м дождь 10/6 480 м
[Cu Sc As op]
+13.0 +10.3 84 +10 +10 1011.8 1011.3 4
15 12.02 ЮЗ 2
{6}
10 км {дождь} 9/6 600 м
[Cu Sc Ac und]
+13.2 +8.9 75 +13 +13 1013.3 1012.7 4
18 12.02 З 2
{4}
10 км {дождь} 9/6 600 м
[Cu Sc Ac und]
+11.2 +7.9 80 +10 +10 1015.4 1014.9 +15.8 9
06 13.02 С 5
{9}
8000 м дождь 10/6 480 м
[Cu Sc As op]
+8.0 +6.7 91 +4 +4 1015.8 1015.3 +8.0 36 175
09 13.02 С 7
{13}
7000 м дождь 10/6 480 м
[Cu Sc As op]
+6.8 +4.5 85 +2 +2 1016.7 1016.2
12 13.02 С 5
{9}
8000 м дождь 10/6 480 м
[Cu Sc As op]
+7.6 +5.4 86 +4 +4 1016.7 1016.2 17
15 13.02 С 6
{10}
10 км слаб. дождь 10/8 540 м
[Cu Sc As op]
+7.8 +4.6 80 +4 +4 1017.5 1017.0
18 13.02 С 5
{9}
10 км слаб. дождь 10/8 600 м
[Cu Sc As op]
+8.0 +4.8 80 +4 +4 1018.7 1018.2 +8.2 25
06 14.02 С 9
{15}
10 км 9/5 750 м
[Sc Ac As]
+8.2 +2.5 67 +3 +3 1020.5 1019.9 +7.6 0.4 180
09 14.02 С 9
{17}
10 км 5/4 750 м
[Sc diur, vesp Ac und]
+8.8 +3.2 68 +4 +5 1020.5 1019.9
12 14.02 С 11
{17}
10 км 5/4 750 м
[Sc diur, vesp Ac und]
+8.8 +2.7 66 +4 +4 1019.5 1019.0
15 14.02 С 9
{19}
10 км 8/4 600 м
[Cu hum Ac und]
+8.4 +2.7 67 +4 +4 1019.5 1019.0
18 14.02 С 8
{15}
10 км 6/3 600 м
[Cu hum Ac und]
+7.4 +0.3 61 +3 +3 1020.6 1020.0 +9.2
06 15.02 С 7
{14}
10 км 5/5 750 м
[Sc Ac cuf]
+7.2 +3.9 80 +2 +3 1019.1 1018.6 +6.4 180
09 15.02 С 7
{16}
10 км 9/5 750 м
[Sc Ac As]
+7.2 +3.9 80 +3 +3 1019.4 1018.9
12 15.02 С 8
{14}
10 км 10/5 750 м
[Sc Ac As]
+9.4 +5.0 74 +5 +6 1018.6 1018.0
15 15.02 С 7
{12}
10 км 9/4 750 м
[Cu hum Ac und]
+9.8 +3.4 64 +6 +6 1018.6 1018.0
18 15.02 С 7
{13}
10 км 9/4 750 м
[Cu hum Ac und]
+8.8 +3.2 68 +5 +5 1019.4 1018.9 +9.8
06 16.02 С 7
{11}
10 км 4/4 600 м
[Sc diur, vesp]
+8.2 +1.9 64 +4 +4 1023.8 1023.3 +7.0 185
09 16.02 С 7
{11}
10 км 4/4 600 м
[Sc diur, vesp]
+9.4 +1.7 59 +6 +7 1024.6 1024.0
12 16.02 С 7
{12}
10 км 3/3 600 м
[Cu hum]
+10.2 +2.8 60 +7 +8 1023.8 1023.3
15 16.02 С 6
{12}
10 км ясно +9.6 +2.0 59 +6 +6 1023.5 1023.0
18 16.02 С 5
{10}
10 км ясно +8.2 +3.0 70 +5 +5 1024.5 1023.9 +10.4
06 17.02 штиль 0
{3}
10 км ясно +7.0 +1.5 68 +6 +8 1025.4 1024.9 +5.4 200
09 17.02 С 2
{3}
10 км ясно +9.8 +3.4 64 +8 +16 1025.6 1025.1
12 17.02 СЗ 4
{6}
10 км ясно +11.6 +2.9 55 +10 +14 1024.5 1023.9
15 17.02 СЗ 5
{10}
12 км ясно +11.8 +3.8 58 +10 +10 1023.1 1022.6
18 17.02 штиль 0
{4}
10 км ясно +9.0 +5.0 76 +8 +8 1023.4 1022.9 +12.8
06 18.02 ЮЗ 3
{4}
10 км ясно +5.6 +3.7 88 +3 +4 1024.2 1023.6 +4.6 180

 

Местоположение метеостанции Митилини (Греция): широта 39.07 долгота 26.60 высота над уровнем моря 5 м.

В архиве по умолчанию представлена погода в Митилини за последнюю неделю. Архивные данные за месяц целиком и за предыдущие месяцы, начиная с января 2011 года, Вы можете получить, выбрав интересующий диапазон дат из раскрывающегося списка и нажав кнопку "Ввод!".


*Определитесь, кто Вы:
робот инопланетянин человек

Внимание! Время в таблицах - всемирное. Для получения местного времени необходимо прибавить поправку, которая равна 2 ч.

Смотрите также архив погоды в соседних городах и на ближайших метеорологических станциях:

Погода в Дикили (Турция) (23 км)
Погода в Айвалыке (Турция) (27 км)
Погода в Измир / Сигли (Турция) (73 км)
Погода в Измире (Турция) (87 км)
Погода в Манисе (Турция) (88 км)
Погода в Чешме (Турция) (90 км)
Погода на Хиосе (Греция) (92 км)
Погода в Измир аэропорту (Турция) (101 км)
Погода в Акхисаре (Турция) (109 км)
Погода в Чанаккале (Турция) (119 км)

Пояснения к столбцам:

Ветер - указаны скорость ветра в м/с - средняя за 10 мин, порывы в срок и между сроками (в фигурных скобках) и направление, откуда дует ветер: С - северный, СВ - северо-восточный, В - восточный, ЮВ - юго-восточный, Ю - южный, ЮЗ - юго-западный, З - западный, СЗ - северо-западный.
Видимость - горизонтальная дальность видимости в метрах или километрах. При видимости от 1 до 10 км при отсутствии осадков обычно наблюдается дымка, при ухудшении видимости до 1 км и менее - туман. В сухую погоду видимость может ухудшаться дымом, пылью или мглою.
Явления - указаны атмосферные явления, наблюдавшиеся в срок или в последний час перед сроком; фигурными скобками обозначены явления, наблюдавшиеся между сроками (за 1-3 часа до срока); квадратными скобками обозначены град или гололедные отложения с указанием их диаметра в мм.
Облачность - указаны через наклонную черту общая и нижняя облачность в баллах и высота нижней границы облаков в метрах; квадратными скобками обозначены формы облаков: Ci - перистые, Cs - перисто-слоистые, Cc - перисто-кучевые, Ac - высококучевые, As - высокослоистые, Sc - слоисто-кучевые, Ns - слоисто-дождевые, Cu - кучевые, Cb - кучево-дождевые. Подробнее классификацию облаков см. в Атласе облаков (PDF).
T - Температура воздуха - температура, измеренная на высоте 2 м над землей.
Td - Температура точки росы - температура, при понижении до которой содержащийся в воздухе водяной пар достигнет насыщения.
f - Относительная влажность воздуха - влажноcть воздуха, измеренная на высоте 2 м над землей.
Te - Эффективная температура - температура, которую ощущает одетый по сезону человек в тени. Характеристика душности погоды. При расчете учитывается влияние влажности воздуха и скорости ветра на теплоощущения человека.
Tes - Эффективная температура на солнце - температура, которую ощущает человек, с поправкой на солнечный нагрев. Характеристика знойности погоды. Зависит от высоты солнца над горизонтом, облачности и скорости ветра. Ночью, в пасмурную погоду, а также при ветре 12 м/с и более поправка равна нулю.
P - Атмосферное давление - приведенное к уровню моря атмосферное давление.
Po - Атмосферное давление - измеренное на уровне метеостанции атмосферное давление.
Tmin - Минимальная температура - минимум температуры воздуха на высоте 2 м над землей.
Tmax - Максимальная температура - максимум температуры воздуха на высоте 2 м над землей.
R - Количество осадков - Количество выпавших осадков за период времени, мм. При наведении курсора мыши на число - период времени, за который выпало указанное количество осадков.
R24 - Количество осадков - Количество выпавших осадков за 24 часа, мм.
S - Снежный покров - Высота снежного покрова, см. При наведении курсора мыши на число - состояние снежного покрова и степень покрытия местности в баллах.